Flag for India Weather past 2 weeks in Jaisalmer, Rajasthan, India

Now
50 °F

Fog.


Feels Like: 50 °F
Forecast: 49 / 80 °F
Wind: No wind

Location: Sukkur

Current Time: Dec 20, 2014 at 12:14:53 PM

Latest Report: Dec 20, 2014 at 11:30 AM


Visibility: 0 mi

Pressure: 30.18 "Hg

Humidity: 94%

Dew point: 48 °F

Location of JaisalmerLocation

Historic Weather in Jaisalmer — Graph

°F

Jaisalmer temperature yesterday

Maximum temperature yesterday: 64 °F (at 1:30 PM)
Minimum temperature yesterday: 50 °F (at 6:30 AM)
Average temperature yesterday: 58 °F

Past Weeks' High & Low Weather Summary

 TemperatureHumidityPressure
High86 °F (Dec 5, 2:30 PM)94% (Dec 17, 9:30 AM)30.18 "Hg (Dec 17, 9:30 AM)
Low43 °F (Dec 12, 6:30 AM)20% (Dec 8, 4:30 PM)29.89 "Hg (Dec 8, 4:30 AM)
Average62 °F64%30.04 "Hg
* Reported Dec 5 10:30 AM — Dec 20 10:30 AM, Jaisalmer, Weather by CustomWeather, © 2014

Note: Actual official high and low records may vary slightly from our data, if they occured in-between our weather recording intervals... More about our weather records

Advertising

Jaisalmer weather history for previous 24 hours

 ConditionsComfort  
Time TempWeatherWind HumidityBarometerVisibility
10:30 AM
Dec 20
48 °FFog.5 mph94%30.18 "Hg0 mi
9:30 AM48 °FFog.No wind94%30.18 "Hg0 mi
8:30 AM48 °FFog.2 mph87%30.15 "Hg0 mi
7:30 AM46 °FFog.7 mph93%30.12 "Hg0 mi
1:30 AM50 °FFog.5 mph88%30.15 "Hg1 mi
12:30 AM52 °FFog.5 mph88%30.15 "Hg1 mi
11:30 PM
Dec 19
52 °FFog.5 mph88%30.18 "Hg1 mi
10:30 PM54 °FFog.5 mph88%30.15 "Hg1 mi
9:30 PM55 °FFog.7 mph82%30.15 "Hg1 mi
8:30 PM55 °FFog.5 mph82%30.12 "Hg1 mi
7:30 PM59 °FFog.No wind77%30.09 "Hg1 mi
6:30 PM61 °FFog.5 mph77%30.09 "Hg1 mi
5:30 PM63 °FScattered clouds.3 mph73%30.09 "Hg1 mi
4:30 PM64 °FScattered clouds.5 mph64%30.09 "Hg1 mi
3:30 PM64 °FScattered clouds.7 mph68%30.12 "Hg1 mi
2:30 PM64 °FScattered clouds.7 mph64%30.12 "Hg1 mi
1:30 PM64 °FScattered clouds.7 mph64%30.15 "Hg1 mi
12:30 PM63 °FFog.5 mph68%30.18 "Hg1 mi
Weather by CustomWeather, © 2014

See weather overviewHow to use our weather pages